Flag for Canada Weather past 2 weeks in London, Ontario, Canada

Now
18 °F

Light snow. Ice fog.


Feels Like: 7 °F
Forecast: 12 / 25 °F
Wind: 8 mph from Northeast

Location: London Weather Station

Current Time: Feb 1, 2015 at 10:42:04 AM

Latest Report: Feb 1, 2015 at 10:00 AM


Visibility: 1 mi

Pressure: 30.23 "Hg

Humidity: 86%

Dew point: 14 °F

Location of LondonLocation

Historic Weather in London — Graph

°F

London temperature yesterday

Maximum temperature yesterday: 27 °F (at 9:00 PM)
Minimum temperature yesterday: 7 °F (at 3:00 AM)
Average temperature yesterday: 18 °F

Past Weeks' High & Low Weather Summary

 TemperatureHumidityPressure
High41 °F (Jan 18, 2:00 AM)100% (Jan 18, 7:00 AM)30.43 "Hg (Jan 18, 7:00 AM)
Low-2 °F (Jan 28, 4:00 AM)42% (Jan 28, 2:00 PM)29.52 "Hg (Jan 24, 2:51 PM)
Average21 °F79%30.04 "Hg
* Reported Jan 17 9:00 AM — Feb 1 9:00 AM, London, Weather by CustomWeather, © 2014

Note: Actual official high and low records may vary slightly from our data, if they occured in-between our weather recording intervals... More about our weather records

Advertising

London weather history for previous 24 hours

 ConditionsComfort  
Time TempWeatherWind HumidityBarometerVisibility
9:00 AM
Feb 1
19 °FLight snow. Ice fog.7 mph93%30.23 "Hg1 mi
8:00 AM21 °FLight snow. Ice fog.6 mph86%30.22 "Hg1 mi
7:04 AM21 °FLight snow. Overcast.5 mph86%30.22 "Hg2 mi
7:00 AM23 °FLight snow. Overcast.6 mph74%30.22 "Hg5 mi
6:00 AM23 °FLight snow. Overcast.5 mph74%30.21 "Hg15 mi
5:00 AM23 °FOvercast.8 mph80%30.19 "Hg15 mi
4:00 AM25 °FMostly cloudy.8 mph86%30.20 "Hg12 mi
3:00 AM25 °FOvercast.3 mph93%30.20 "Hg12 mi
2:00 AM25 °FOvercast.5 mph93%30.19 "Hg12 mi
1:00 AM27 °FMostly cloudy.6 mph86%30.20 "Hg12 mi
12:00 AM27 °FOvercast.5 mph86%30.20 "Hg12 mi
11:00 PM
Jan 31
27 °FOvercast.7 mph80%30.19 "Hg12 mi
10:00 PM27 °FOvercast.6 mph80%30.20 "Hg12 mi
9:00 PM27 °FOvercast.8 mph80%30.20 "Hg15 mi
8:00 PM25 °FMostly cloudy.8 mph86%30.21 "Hg12 mi
7:00 PM25 °FOvercast.9 mph80%30.22 "Hg12 mi
6:00 PM25 °FOvercast.8 mph80%30.21 "Hg10 mi
5:00 PM25 °FOvercast.10 mph86%30.22 "Hg10 mi
4:00 PM25 °FOvercast.10 mph80%30.21 "Hg15 mi
3:00 PM25 °FPartly sunny.9 mph80%30.22 "Hg15 mi
2:00 PM25 °FOvercast.12 mph69%30.23 "Hg15 mi
1:00 PM23 °FOvercast.12 mph74%30.25 "Hg15 mi
12:00 PM21 °FPartly sunny.12 mph74%30.28 "Hg15 mi
11:00 AM19 °FMostly cloudy.8 mph73%30.31 "Hg15 mi
10:00 AM18 °FPartly sunny.12 mph73%30.32 "Hg15 mi
Weather by CustomWeather, © 2014

See weather overviewHow to use our weather pages